| time (UTC) | temp F | wind direction | speed MPH | gust MPH | rain 1hr in | rain 24hr in | rain mn in | humidity % | barometer mb |
| 20260504110511 | 44 | 139 | 1.0 | 3.0 | 0.00 | 0.00 | 0.00 | 86 | 1000.9 |
| 20260504100506 | 43 | 165 | 2.0 | 5.0 | 0.00 | 0.00 | 0.00 | 86 | 1001.0 |
| 20260504081557 | 43 | 202 | 2.0 | 5.0 | 0.00 | 0.00 | 0.00 | 76 | 1001.6 |
| 20260504081053 | 43 | 172 | 2.0 | 6.0 | 0.00 | 0.00 | 0.00 | 76 | 1001.6 |
| 20260504080553 | 43 | 134 | 2.0 | 4.0 | 0.00 | 0.00 | 0.00 | 75 | 1001.6 |
| 20260504050530 | 42 | 144 | 2.0 | 7.0 | 0.00 | 0.00 | 0.00 | 56 | 1002.0 |
| 20260504045528 | 42 | 167 | 1.0 | 3.0 | 0.00 | 0.00 | 0.00 | 57 | 1002.2 |
| 20260504045032 | 42 | 195 | 1.0 | 3.0 | 0.00 | 0.00 | 0.00 | 56 | 1002.2 |
| 20260504044526 | 42 | 215 | 0.0 | 4.0 | 0.00 | 0.00 | 0.00 | 58 | 1002.2 |
| 20260504044030 | 42 | 142 | 0.0 | 4.0 | 0.00 | 0.00 | 0.00 | 58 | 1002.2 |
| 20260504043525 | 41 | 165 | 1.0 | 3.0 | 0.00 | 0.00 | 0.00 | 58 | 1002.2 |
| 20260504043025 | 41 | 169 | 0.0 | 4.0 | 0.00 | 0.00 | 0.00 | 59 | 1002.3 |
| 20260504042523 | 41 | 161 | 2.0 | 4.0 | 0.00 | 0.00 | 0.00 | 59 | 1002.3 |
| 20260504042021 | 40 | 175 | 2.0 | 6.0 | 0.00 | 0.00 | 0.00 | 61 | 1002.3 |
| 20260504041519 | 39 | 113 | 2.0 | 6.0 | 0.00 | 0.00 | 0.00 | 62 | 1002.3 |
| 20260504041018 | 38 | 162 | 1.0 | 4.0 | 0.00 | 0.00 | 0.00 | 64 | 1002.3 |
| 20260504040517 | 38 | 145 | 1.0 | 3.0 | 0.00 | 0.00 | 0.00 | 66 | 1002.3 |
| 20260504040017 | 37 | 138 | 1.0 | 3.0 | 0.00 | 0.00 | 0.00 | 67 | 1002.3 |
| 20260504035517 | 37 | 145 | 1.0 | 3.0 | 0.00 | 0.00 | 0.00 | 67 | 1002.3 |
| 20260504035016 | 37 | 136 | 1.0 | 2.0 | 0.00 | 0.00 | 0.00 | 68 | 1002.4 |
| 20260504034516 | 37 | 136 | 1.0 | 2.0 | 0.00 | 0.00 | 0.00 | 67 | 1002.3 |
| 20260504034015 | 37 | 136 | 0.0 | 2.0 | 0.00 | 0.00 | 0.00 | 67 | 1002.4 |
| 20260504033515 | 37 | 136 | 0.0 | 2.0 | 0.00 | 0.00 | 0.00 | 68 | 1002.4 |
| 20260504033016 | 37 | 136 | 1.0 | 2.0 | 0.00 | 0.00 | 0.00 | 67 | 1002.3 |
| 20260504032516 | 37 | 136 | 0.0 | 2.0 | 0.00 | 0.00 | 0.00 | 67 | 1002.3 |
| 20260504032016 | 37 | 136 | 0.0 | 2.0 | 0.00 | 0.00 | 0.00 | 67 | 1002.4 |
| 20260504031515 | 37 | 136 | 0.0 | 2.0 | 0.00 | 0.00 | 0.00 | 67 | 1002.4 |
| 20260504031014 | 37 | 136 | 0.0 | 2.0 | 0.00 | 0.00 | 0.00 | 68 | 1002.4 |
| 20260504030514 | 37 | 136 | 0.0 | 2.0 | 0.00 | 0.01 | 0.00 | 68 | 1002.4 |
| 20260504030016 | 37 | 136 | 0.0 | 2.0 | 0.00 | 0.01 | 0.00 | 69 | 1002.5 |
| 20260504025514 | 37 | 136 | 1.0 | 2.0 | 0.00 | 0.01 | 0.00 | 69 | 1002.5 |
| 20260504025017 | 37 | 136 | 1.0 | 2.0 | 0.00 | 0.01 | 0.00 | 70 | 1002.6 |
| 20260504024514 | 37 | 136 | 1.0 | 3.0 | 0.00 | 0.01 | 0.00 | 70 | 1002.6 |
| 20260504024013 | 37 | 136 | 1.0 | 5.0 | 0.00 | 0.01 | 0.00 | 71 | 1002.6 |
| 20260504023513 | 37 | 136 | 2.0 | 5.0 | 0.00 | 0.01 | 0.00 | 70 | 1002.6 |
| 20260504023013 | 37 | 130 | 1.0 | 3.0 | 0.00 | 0.01 | 0.00 | 69 | 1002.7 |
| 20260504022513 | 37 | 132 | 2.0 | 3.0 | 0.00 | 0.01 | 0.00 | 70 | 1002.7 |
| 20260504022012 | 37 | 119 | 1.0 | 3.0 | 0.00 | 0.01 | 0.00 | 71 | 1002.8 |
| 20260504021512 | 37 | 119 | 1.0 | 3.0 | 0.00 | 0.01 | 0.00 | 70 | 1002.7 |
| 20260504021011 | 37 | 119 | 1.0 | 3.0 | 0.00 | 0.01 | 0.00 | 71 | 1002.8 |
| 20260504020511 | 37 | 128 | 2.0 | 3.0 | 0.00 | 0.01 | 0.00 | 71 | 1002.8 |
| 20260504020012 | 38 | 134 | 2.0 | 3.0 | 0.00 | 0.01 | 0.00 | 70 | 1002.8 |
| 20260504015511 | 37 | 143 | 1.0 | 3.0 | 0.00 | 0.01 | 0.00 | 70 | 1002.8 |
| 20260504015012 | 38 | 143 | 1.0 | 3.0 | 0.00 | 0.01 | 0.00 | 70 | 1002.8 |
| 20260504014512 | 38 | 143 | 0.0 | 2.0 | 0.00 | 0.01 | 0.00 | 70 | 1002.8 |
| 20260504014010 | 38 | 143 | 1.0 | 2.0 | 0.00 | 0.01 | 0.00 | 70 | 1002.8 |
| 20260504013516 | 38 | 143 | 1.0 | 2.0 | 0.00 | 0.01 | 0.00 | 69 | 1002.8 |
| 20260504013014 | 38 | 143 | 1.0 | 3.0 | 0.00 | 0.01 | 0.00 | 69 | 1002.8 |
| 20260504012510 | 39 | 143 | 1.0 | 3.0 | 0.00 | 0.01 | 0.00 | 69 | 1002.9 |
| 20260504012010 | 39 | 159 | 1.0 | 4.0 | 0.00 | 0.01 | 0.00 | 69 | 1002.8 |
| 20260504011510 | 39 | 137 | 1.0 | 3.0 | 0.00 | 0.01 | 0.00 | 69 | 1002.7 |
| 20260504011009 | 39 | 134 | 1.0 | 2.0 | 0.00 | 0.01 | 0.00 | 68 | 1002.7 |
| 20260504010509 | 40 | 123 | 1.0 | 2.0 | 0.00 | 0.02 | 0.00 | 67 | 1002.6 |
| 20260504010009 | 40 | 123 | 1.0 | 2.0 | 0.00 | 0.02 | 0.00 | 66 | 1002.6 |
| 20260504005510 | 41 | 123 | 1.0 | 2.0 | 0.00 | 0.02 | 0.00 | 65 | 1002.5 |
| 20260504005009 | 41 | 123 | 1.0 | 2.0 | 0.00 | 0.02 | 0.00 | 65 | 1002.5 |
| 20260504004524 | 41 | 123 | 1.0 | 2.0 | 0.00 | 0.02 | 0.00 | 63 | 1002.5 |
| 20260504004010 | 42 | 119 | 0.0 | 2.0 | 0.00 | 0.02 | 0.00 | 63 | 1002.5 |
| 20260504003509 | 42 | 119 | 0.0 | 2.0 | 0.00 | 0.02 | 0.00 | 63 | 1002.5 |
| 20260504003009 | 43 | 119 | 0.0 | 2.0 | 0.00 | 0.02 | 0.00 | 61 | 1002.5 |
| 20260504002508 | 44 | 119 | 1.0 | 3.0 | 0.00 | 0.02 | 0.00 | 60 | 1002.4 |
| 20260504002008 | 44 | 119 | 1.0 | 4.0 | 0.00 | 0.02 | 0.00 | 58 | 1002.4 |
| 20260504001521 | 45 | 155 | 0.0 | 3.0 | 0.00 | 0.02 | 0.00 | 54 | 1002.4 |
| 20260504001007 | 45 | 206 | 1.0 | 2.0 | 0.00 | 0.02 | 0.00 | 54 | 1002.4 |
| 20260504000509 | 46 | 242 | 0.0 | 3.0 | 0.00 | 0.02 | 0.00 | 52 | 1002.3 |
| 20260504000006 | 46 | 221 | 0.0 | 3.0 | 0.00 | 0.02 | 0.00 | 52 | 1002.4 |
| 20260503235506 | 46 | 178 | 0.0 | 3.0 | 0.00 | 0.02 | 0.00 | 53 | 1002.4 |
| 20260503235007 | 46 | 180 | 1.0 | 3.0 | 0.00 | 0.02 | 0.00 | 53 | 1002.3 |
| 20260503234510 | 47 | 202 | 0.0 | 3.0 | 0.00 | 0.02 | 0.00 | 52 | 1002.3 |
| 20260503234007 | 47 | 150 | 0.0 | 2.0 | 0.00 | 0.02 | 0.00 | 52 | 1002.2 |
| 20260503233509 | 47 | 171 | 0.0 | 3.0 | 0.00 | 0.02 | 0.00 | 51 | 1002.3 |
| 20260503233005 | 47 | 171 | 1.0 | 4.0 | 0.00 | 0.02 | 0.00 | 51 | 1002.2 |
| 20260503232507 | 47 | 177 | 0.0 | 3.0 | 0.00 | 0.02 | 0.00 | 51 | 1002.2 |
| 20260503232007 | 47 | 208 | 0.0 | 2.0 | 0.00 | 0.02 | 0.00 | 52 | 1002.1 |
| 20260503231505 | 47 | 208 | 0.0 | 2.0 | 0.00 | 0.02 | 0.00 | 54 | 1002.2 |
| 20260503231008 | 47 | 238 | 0.0 | 2.0 | 0.00 | 0.02 | 0.00 | 51 | 1002.2 |
| 20260503230506 | 47 | 333 | 0.0 | 3.0 | 0.00 | 0.03 | 0.00 | 51 | 1002.2 |
| 20260503230005 | 47 | 298 | 1.0 | 3.0 | 0.00 | 0.03 | 0.00 | 55 | 1002.2 |
| 20260503225508 | 47 | 274 | 0.0 | 4.0 | 0.00 | 0.03 | 0.00 | 54 | 1002.1 |
| 20260503225004 | 47 | 234 | 0.0 | 4.0 | 0.00 | 0.03 | 0.00 | 52 | 1002.2 |
| 20260503224505 | 47 | 325 | 0.0 | 3.0 | 0.00 | 0.03 | 0.00 | 53 | 1002.2 |
| 20260503224004 | 47 | 325 | 1.0 | 5.0 | 0.00 | 0.03 | 0.00 | 54 | 1002.2 |
| 20260503223505 | 47 | 285 | 2.0 | 5.0 | 0.00 | 0.03 | 0.00 | 50 | 1002.2 |
| 20260503223008 | 47 | 294 | 3.0 | 5.0 | 0.00 | 0.03 | 0.00 | 51 | 1002.3 |
| 20260503222505 | 47 | 278 | 2.0 | 5.0 | 0.00 | 0.03 | 0.00 | 52 | 1002.2 |
| 20260503222003 | 48 | 286 | 2.0 | 6.0 | 0.00 | 0.03 | 0.00 | 53 | 1002.2 |
| 20260503221503 | 48 | 273 | 1.0 | 8.0 | 0.00 | 0.03 | 0.00 | 52 | 1002.2 |
| 20260503221003 | 48 | 351 | 3.0 | 8.0 | 0.00 | 0.03 | 0.00 | 48 | 1002.3 |
| 20260503220502 | 49 | 320 | 3.0 | 6.0 | 0.00 | 0.03 | 0.00 | 51 | 1002.2 |
| 20260503220001 | 49 | 257 | 3.0 | 7.0 | 0.00 | 0.03 | 0.00 | 50 | 1002.2 |
| 20260503215500 | 48 | 293 | 2.0 | 4.0 | 0.00 | 0.03 | 0.00 | 48 | 1002.2 |
| 20260503215000 | 48 | 321 | 0.0 | 5.0 | 0.00 | 0.03 | 0.00 | 51 | 1002.2 |
| 20260503214601 | 48 | 331 | 2.0 | 5.0 | 0.00 | 0.03 | 0.00 | 50 | 1002.2 |
| 20260503214059 | 47 | 294 | 3.0 | 5.0 | 0.00 | 0.03 | 0.00 | 49 | 1002.2 |
| 20260503213600 | 47 | 284 | 2.0 | 4.0 | 0.00 | 0.03 | 0.00 | 49 | 1002.2 |
| 20260503213058 | 47 | 302 | 2.0 | 5.0 | 0.00 | 0.03 | 0.00 | 52 | 1002.2 |
| 20260503212559 | 48 | 311 | 1.0 | 6.0 | 0.00 | 0.03 | 0.00 | 51 | 1002.2 |
| 20260503212058 | 48 | 283 | 4.0 | 6.0 | 0.00 | 0.03 | 0.00 | 49 | 1002.2 |
| 20260503211558 | 48 | 306 | 1.0 | 4.0 | 0.00 | 0.03 | 0.00 | 52 | 1002.2 |
| 20260503211057 | 48 | 360 | 1.0 | 6.0 | 0.00 | 0.03 | 0.00 | 49 | 1002.2 |
| 20260503210558 | 48 | 319 | 3.0 | 6.0 | 0.00 | 0.03 | 0.00 | 50 | 1002.2 |
| 20260503210058 | 48 | 327 | 3.0 | 5.0 | 0.00 | 0.03 | 0.00 | 49 | 1002.2 |
| 20260503205557 | 48 | 298 | 1.0 | 11.0 | 0.00 | 0.03 | 0.00 | 49 | 1002.1 |
| 20260503205056 | 48 | 334 | 3.0 | 11.0 | 0.00 | 0.03 | 0.00 | 49 | 1002.2 |
| 20260503204555 | 47 | 311 | 2.0 | 8.0 | 0.00 | 0.03 | 0.00 | 50 | 1002.2 |
| 20260503204054 | 47 | 355 | 3.0 | 8.0 | 0.00 | 0.03 | 0.00 | 51 | 1002.2 |
| 20260503203555 | 47 | 332 | 2.0 | 10.0 | 0.00 | 0.03 | 0.00 | 50 | 1002.3 |
| 20260503203054 | 47 | 306 | 2.0 | 10.0 | 0.00 | 0.03 | 0.00 | 54 | 1002.2 |
| 20260503202554 | 47 | 262 | 2.0 | 9.0 | 0.00 | 0.03 | 0.00 | 51 | 1002.1 |
| 20260503202054 | 47 | 279 | 2.0 | 9.0 | 0.00 | 0.03 | 0.00 | 54 | 1002.2 |
| 20260503201553 | 47 | 330 | 2.0 | 9.0 | 0.00 | 0.03 | 0.00 | 54 | 1002.4 |
| 20260503201052 | 47 | 266 | 4.0 | 15.0 | 0.00 | 0.03 | 0.00 | 51 | 1002.3 |
| 20260503200550 | 47 | 350 | 4.0 | 15.0 | 0.00 | 0.03 | 0.00 | 54 | 1002.3 |
| 20260503200050 | 46 | 252 | 4.0 | 10.0 | 0.00 | 0.03 | 0.00 | 54 | 1002.3 |
| 20260503195550 | 46 | 232 | 5.0 | 9.0 | 0.00 | 0.03 | 0.00 | 56 | 1002.4 |
| 20260503195048 | 46 | 283 | 4.0 | 12.0 | 0.00 | 0.03 | 0.00 | 55 | 1002.5 |
| 20260503194601 | 46 | 302 | 6.0 | 12.0 | 0.00 | 0.03 | 0.00 | 56 | 1002.5 |
| 20260503194051 | 46 | 281 | 3.0 | 9.0 | 0.00 | 0.03 | 0.00 | 58 | 1002.6 |
| 20260503193549 | 45 | 309 | 4.0 | 14.0 | 0.00 | 0.03 | 0.00 | 57 | 1002.6 |
| 20260503193049 | 45 | 323 | 5.0 | 14.0 | 0.00 | 0.03 | 0.00 | 57 | 1002.7 |
| 20260503192547 | 46 | 300 | 5.0 | 14.0 | 0.00 | 0.03 | 0.00 | 56 | 1002.6 |
| 20260503192047 | 46 | 319 | 6.0 | 14.0 | 0.00 | 0.03 | 0.00 | 53 | 1002.6 |
| 20260503191551 | 47 | 303 | 6.0 | 12.0 | 0.00 | 0.03 | 0.00 | 53 | 1002.6 |
| 20260503191049 | 46 | 325 | 3.0 | 10.0 | 0.00 | 0.03 | 0.00 | 56 | 1002.6 |
| 20260503190545 | 46 | 38 | 3.0 | 9.0 | 0.00 | 0.03 | 0.00 | 55 | 1002.7 |
| 20260503190046 | 46 | 324 | 4.0 | 9.0 | 0.00 | 0.03 | 0.00 | 56 | 1002.7 |
| 20260503185544 | 46 | 292 | 3.0 | 9.0 | 0.00 | 0.03 | 0.00 | 54 | 1002.8 |
| 20260503185045 | 46 | 283 | 4.0 | 10.0 | 0.00 | 0.03 | 0.00 | 54 | 1002.8 |
| 20260503184544 | 46 | 284 | 3.0 | 10.0 | 0.00 | 0.03 | 0.00 | 55 | 1002.8 |
| 20260503184045 | 46 | 308 | 4.0 | 10.0 | 0.00 | 0.03 | 0.00 | 57 | 1002.9 |
| 20260503183544 | 46 | 252 | 5.0 | 10.0 | 0.00 | 0.03 | 0.00 | 56 | 1002.9 |
| 20260503183052 | 46 | 276 | 4.0 | 8.0 | 0.00 | 0.03 | 0.00 | 55 | 1002.8 |
| 20260503182543 | 45 | 319 | 4.0 | 8.0 | 0.00 | 0.03 | 0.00 | 58 | 1002.9 |
| 20260503182042 | 46 | 303 | 3.0 | 8.0 | 0.00 | 0.03 | 0.00 | 55 | 1002.9 |
| 20260503181557 | 46 | 309 | 3.0 | 9.0 | 0.00 | 0.03 | 0.00 | 55 | 1002.9 |
| 20260503181044 | 46 | 300 | 4.0 | 9.0 | 0.00 | 0.03 | 0.00 | 54 | 1003.0 |
| 20260503180541 | 46 | 288 | 2.0 | 8.0 | 0.00 | 0.03 | 0.00 | 57 | 1003.0 |
| 20260503180047 | 45 | 323 | 2.0 | 12.0 | 0.00 | 0.03 | 0.00 | 59 | 1003.0 |
| 20260503175540 | 45 | 258 | 2.0 | 14.0 | 0.00 | 0.03 | 0.00 | 57 | 1003.0 |
| 20260503175039 | 45 | 10 | 6.0 | 14.0 | 0.00 | 0.03 | 0.00 | 56 | 1003.1 |
| 20260503174547 | 45 | 336 | 5.0 | 12.0 | 0.00 | 0.03 | 0.00 | 55 | 1003.1 |
| 20260503174039 | 45 | 23 | 4.0 | 8.0 | 0.00 | 0.03 | 0.00 | 55 | 1003.3 |
| 20260503173539 | 45 | 312 | 4.0 | 9.0 | 0.00 | 0.03 | 0.00 | 54 | 1003.2 |
| 20260503173041 | 45 | 322 | 2.0 | 9.0 | 0.00 | 0.03 | 0.00 | 57 | 1003.3 |
| 20260503172539 | 46 | 316 | 3.0 | 9.0 | 0.00 | 0.03 | 0.00 | 56 | 1003.2 |
| 20260503172038 | 46 | 315 | 4.0 | 9.0 | 0.00 | 0.03 | 0.00 | 55 | 1003.2 |
| 20260503171538 | 46 | 326 | 5.0 | 10.0 | 0.00 | 0.03 | 0.00 | 57 | 1003.2 |
| 20260503171038 | 46 | 283 | 3.0 | 10.0 | 0.00 | 0.03 | 0.00 | 56 | 1003.3 |
| 20260503170538 | 46 | 343 | 5.0 | 10.0 | 0.00 | 0.03 | 0.00 | 55 | 1003.3 |
| 20260503150522 | 45 | 22 | 4.0 | 14.0 | 0.00 | 0.03 | 0.00 | 59 | 1004.0 |
| 20260503131007 | 42 | 250 | 3.0 | 8.0 | 0.00 | 0.03 | 0.00 | 80 | 1004.7 |
| 20260503130505 | 42 | 355 | 3.0 | 5.0 | 0.00 | 0.04 | 0.00 | 82 | 1004.7 |